Regional Weather Roundup
Issued by NWS San Diego, CA

Home | Current Version | Previous Version | Text Only | Print | Product List | Glossary On
Versions: 1 2 3 4 5 6 7 8 9 10 11 12 13 14 15 16 17 18 19 20 21 22 23 24 25 26 27 28 29 30 31 32 33 34 35 36 37 38 39 40 41 42 43 44 45 46 47 48 49 50
000
ASUS46 KSGX 290011
RWRSGX

SAN DIEGO HOURLY WEATHER ROUNDUP
NATIONAL WEATHER SERVICE SAN DIEGO CA
500 PM PDT THU MAY 28 2015

NOTE: "FAIR" INDICATES FEW OR NO CLOUDS BELOW 12,000 FEET WITH NO
SIGNIFICANT WEATHER AND/OR OBSTRUCTIONS TO VISIBILITY.

CAZ042-043-060-061-PZZ750-775-290100-

GREATER SAN DIEGO AREA

CITY           SKY/WX    TMP DP  RH WIND       PRES   REMARKS
LINDBERGH FLD  MOSUNNY   67  54  63 NW9       29.94F
POINT LOMA       N/A     67  55  65 NW15        N/A
NATIONAL CITY    N/A     68  58  70 W3        29.94F
CHULA VISTA      N/A     67  58  75 W8        29.87F
IMPERIAL BEACH MOSUNNY   66  55  67 W10       29.94F
BROWN FIELD    SUNNY     66  55  67 W7        29.93F
MONTGOMERY FLD SUNNY     68  55  63 NW8       29.93F

$$

NORTH SAN DIEGO COUNTY

CITY           SKY/WX    TMP DP  RH WIND       PRES   REMARKS
CAMP PENDLETON MOSUNNY   68  56  65 SW8       29.91F
OCEANSIDE AP   MOSUNNY   67  56  67 W6        29.92F
OCEANSIDE HBR    N/A     64  59  83 W12       29.95F
VISTA            N/A     69  59  71 W6        29.91F
CARLSBAD       MOSUNNY   65  56  72 SW10      29.93F
DEL MAR          N/A     67  58  72 W1        29.96F
LA JOLLA SCRIP   N/A    N/A N/A N/A W5        29.92F
FALLBROOK        N/A     74  60  61 SW7       29.90F
ESCONDIDO        N/A     73  59  61 W10       29.93F
SAN MARCOS       N/A     68  58  71 W10       29.91F
POWAY            N/A     74  59  58 SW7       29.93S

$$

EAST SAN DIEGO COUNTY

CITY           SKY/WX    TMP DP  RH WIND       PRES   REMARKS
RAMONA         SUNNY     77  56  48 NW10      29.92F
SANTEE LAKES     N/A     73  59  60 W7        29.91S
LA MESA          N/A     70  58  65 CALM      29.86F
JAMUL            N/A     76  60  57 S3        29.91S
DESCANSO N       N/A     78  53  41 W1        29.80F
MT. LAGUNA OBS   N/A     71  45  39 W10       29.71F
CAMPO            N/A     82  45  27 SW12      29.91F

$$

ORANGE COUNTY AND THE LOS ANGELES BASIN

CITY           SKY/WX    TMP DP  RH WIND       PRES   REMARKS
JOHN WAYNE AP  MOSUNNY   69  55  60 S9        29.91F
SANTA ANA        N/A     77  59  53 CALM      29.86F
HUNTINGTON BCH   N/A     69  60  72 SW1       29.94F
FULLERTON      SUNNY     75  54  47 VRB6      29.90F
LONG BEACH     SUNNY     71  56  58 S7        29.91F
L.A. AP        MOSUNNY   64  56  75 W14       29.94S
L.A. DOWNTOWN  SUNNY     70  56  61 CALM      29.91F

$$

THE INLAND EMPIRE

CITY           SKY/WX    TMP DP  RH WIND       PRES   REMARKS
CORONA         SUNNY     81  55  40 W12       29.89F
CHINO          MOSUNNY   84  55  36 SW13      29.89F
ONTARIO        MOSUNNY   84  52  33 SW9       29.89F
RIVERSIDE AP   SUNNY     84  53  34 W7        29.88F
RIV CYN CREST    N/A     84  60  43 W3          N/A
MORENO VALLEY    N/A     87  56  34 W5        29.87F
HORSETHIEF CYN   N/A     83  51  33 NW6       29.87F
PERRIS           N/A     85  55  36 W6          N/A
MENIFEE          N/A     90  57  32 SE1       29.95S
HEMET EAST       N/A     86  42  20 SW1       29.88F
FRENCH VALLEY  FAIR      81  55  41 SW9       29.91F
TEMECULA         N/A     83  56  40 SW3       29.84F

$$

SAN BERNARDINO AND RIVERSIDE COUNTY MOUNTAINS

CITY           SKY/WX    TMP DP  RH WIND       PRES   REMARKS
BIG BEAR AP    SUNNY     70  32  24 W9        30.19S
ANGELUS OAKS     N/A     74  43  32 W6        29.82F
PINE COVE        N/A     71  43  36 N3        29.90S

$$

SOUTHERN DESERT INCLUDING THE COACHELLA VALLEY

CITY           SKY/WX    TMP DP  RH WIND       PRES   REMARKS
PALM SPRINGS   SUNNY     99  36  11 SE5       29.80F
THOUSAND PALMS   N/A     99  38  12 CALM      29.78
PALM DESERT      N/A     99  50  19 E2        31.26R HX  96
THERMAL        SUNNY     99  40  13 SE9       29.74F
BLYTHE         SUNNY     99  28   8 S9        29.78F
IMPERIAL AP    SUNNY     97  40  14 SE7       29.76F
EL CENTRO NAS  MOSUNNY   97  39  13 SE7       29.78F
YUMA AZ        MOSUNNY   98  38  12 VRB7      29.79F
MEXICALI       SUNNY     97  28   9 SW6       29.79

$$

UPPER DESERT

CITY           SKY/WX    TMP DP  RH WIND       PRES   REMARKS
VICTORVILLE AP SUNNY     90  28  11 S7        29.92F
HESPERIA         N/A     87  38  17 W10       29.94F
APPLE VALLEY     N/A     89  34  14 S9G17     29.95F
PALMDALE       SUNNY     90  34  13 SW20      29.91F
LANCASTER      SUNNY     88  35  15 SW21G28   29.91S
EDWARDS AFB    PTSUNNY   93  28  10 SW17G23   29.86F
DAGGETT        MOSUNNY   95  23   7 CALM      29.83F
29 PALMS N     MOSUNNY   93  32  11 S6        29.93F
NEEDLES        SUNNY    100  19   5 S8        29.79F

$$

REGIONAL REPORTS

CITY           SKY/WX    TMP DP  RH WIND       PRES   REMARKS
SANTA BARBARA  SUNNY     67  53  61 SW6       29.94F
SANDBERG       SUNNY     82  33  17 VRB5      30.08F
LAS VEGAS NV   MOSUNNY   96  28   9 SE10      29.80F
PHOENIX AZ     MOSUNNY   98  29   8 W7        29.81F
TIJUANA        SUNNY     66  52  59 W12       29.96S
ENSENADA NW      N/A     63  32  30 W9        29.91F

$$

OFFSHORE ISLANDS

CITY           SKY/WX    TMP DP  RH WIND       PRES   REMARKS
CATALINA ARPT  SUNNY     62  53  72 SW12      29.96S
SAN CLEMENTE I CLOUDY    64  52  64 W13       29.97R
SAN NICOLAS IS PTSUNNY  N/A N/A N/A NW18      29.95

$$

MARINE AND OFFSHORE BUOY REPORTS

STATION/POSITION SKY/WX   TEMP    WIND        PRES    SWELL
                          AIR SEA DIR/SP/G            HT/PER/DIR
                          (F)     (DEG/KT/KT) (MB)    (FT/S/D)
TANNER BANKS               59 61  320/ 16/ 19 1014.7F   5/290/13
S CLEMENTE BASIN           59 63  270/  8/ 10 1013.8F   5/240/16
SAN NICOLAS IS.               61                N/A     5/210/17
SO. S. ROSA ISLA           57 60  320/ 17/ 21 1014.2F   5/15
W. S. BARBARA CH           56 57  310/ 19/ 23 1013.9F   3/250/14
M. S. BARBARA CH           58 60  260/ 10/ 12 1015.0F
S. MONICA BASIN            60 64  280/ 10/ 10 1014.0F   3/200/16
S PEDRO CHANNEL               64                N/A     2/250/15
DANA POINT                    65                N/A     2/200/17
OCEANSIDE OFFSHR              66                N/A     3/220/17
TORREY PINES OTR              65                N/A     3/220/17
LA JOLLA 1                 64 65  300/  6/  7 1014.0F
MISSION BAY BUOY              65                N/A     3/220/17
SAN DIEGO BAY                 66              1014.3F
POINT LOMA SOUTH              65                N/A     3/220/14

$$



USA.gov is the U.S. government's official web portal to all federal, state and local government web resources and services.